TimeCDT,TemperatureF,Dew PointF,Humidity,Sea Level PressureIn,VisibilityMPH,Wind Direction,Wind SpeedMPH,Gust SpeedMPH,PrecipitationIn,Events,Conditions,WindDirDegrees,DateUTC
12:53 AM,36.0,34.0,93,30.09,10.0,West,9.2,-,N/A,,Overcast,260,2013-10-19 05:53:00
1:53 AM,36.0,34.0,93,30.07,10.0,WSW,8.1,-,N/A,,Overcast,240,2013-10-19 06:53:00
2:27 AM,35.6,33.8,93,30.06,9.0,West,11.5,-,N/A,,Overcast,260,2013-10-19 07:27:00
2:53 AM,36.0,33.1,89,30.07,10.0,West,8.1,-,N/A,,Overcast,260,2013-10-19 07:53:00
3:53 AM,35.1,33.1,92,30.05,10.0,SW,8.1,-,N/A,,Mostly Cloudy,230,2013-10-19 08:53:00
4:53 AM,35.1,33.1,92,30.04,4.0,SW,9.2,-,N/A,,Overcast,220,2013-10-19 09:53:00
5:53 AM,35.1,33.1,92,30.04,4.0,SW,9.2,-,N/A,,Overcast,220,2013-10-19 10:53:00
6:53 AM,35.1,33.1,92,30.04,7.0,SW,10.4,-,N/A,,Mostly Cloudy,220,2013-10-19 11:53:00
7:53 AM,34.0,32.0,92,30.04,7.0,SW,9.2,-,N/A,,Mostly Cloudy,230,2013-10-19 12:53:00
8:17 AM,33.8,32.0,93,30.02,8.0,SW,9.2,-,N/A,,Scattered Clouds,220,2013-10-19 13:17:00
8:53 AM,36.0,34.0,93,30.04,10.0,SW,9.2,-,N/A,,Partly Cloudy,220,2013-10-19 13:53:00
9:53 AM,39.9,36.0,86,30.04,10.0,SW,10.4,-,N/A,,Partly Cloudy,220,2013-10-19 14:53:00
10:53 AM,45.0,37.0,74,30.02,10.0,SW,9.2,-,N/A,,Clear,220,2013-10-19 15:53:00
11:53 AM,51.1,37.9,61,30.00,10.0,SW,11.5,-,N/A,,Clear,220,2013-10-19 16:53:00
12:53 PM,55.0,39.0,55,29.98,10.0,SW,12.7,-,N/A,,Clear,230,2013-10-19 17:53:00
1:53 PM,57.9,34.0,41,29.95,10.0,West,16.1,20.7,N/A,,Partly Cloudy,260,2013-10-19 18:53:00
2:53 PM,60.1,35.1,39,29.92,10.0,WSW,16.1,23.0,N/A,,Partly Cloudy,240,2013-10-19 19:53:00
3:53 PM,61.0,34.0,36,29.90,10.0,WSW,10.4,21.9,N/A,,Partly Cloudy,240,2013-10-19 20:53:00
4:53 PM,61.0,33.1,35,29.89,10.0,WSW,15.0,-,N/A,,Partly Cloudy,240,2013-10-19 21:53:00
5:53 PM,59.0,34.0,39,29.89,10.0,West,6.9,-,N/A,,Partly Cloudy,260,2013-10-19 22:53:00
6:53 PM,55.0,34.0,45,29.90,10.0,SW,4.6,-,N/A,,Partly Cloudy,220,2013-10-19 23:53:00
7:53 PM,48.0,35.1,61,29.91,10.0,SSW,5.8,-,N/A,,Partly Cloudy,200,2013-10-20 00:53:00
8:53 PM,46.9,37.0,68,29.90,10.0,South,6.9,-,N/A,,Scattered Clouds,190,2013-10-20 01:53:00
9:53 PM,46.0,37.0,71,29.90,10.0,SSW,9.2,-,N/A,,Partly Cloudy,200,2013-10-20 02:53:00
10:53 PM,46.0,37.0,71,29.89,10.0,SSW,9.2,-,N/A,,Partly Cloudy,200,2013-10-20 03:53:00
11:53 PM,46.0,37.9,73,29.88,10.0,South,10.4,-,N/A,,Clear,190,2013-10-20 04:53:00